Location: New York
(40.7140°N, 74.0060°W)
Time: 00:16:04
(UTC-04:00)

ISS - Visible Passes

Search period start: 24 October 2017 00:00
Search period end: 03 November 2017 00:00
Orbit: 400 x 408 km, 51.6° (Epoch: 24 October)

Date Brightness Start Highest point End Pass type
(mag) Time Alt. Az. Time Alt. Az. Time Alt. Az.
27 Oct -0.6 06:31:31 10° SSE 06:32:58 12° SE 06:34:26 10° ESE visible
29 Oct -1.9 06:21:29 10° SSW 06:24:20 29° SE 06:27:15 10° ENE visible
30 Oct -0.9 05:30:05 10° S 05:32:06 16° SE 05:34:08 10° E visible
31 Oct -3.8 06:13:26 17° SW 06:15:49 76° SE 06:19:04 10° ENE visible
01 Nov -2.3 05:23:50 35° ESE 05:23:50 35° ESE 05:26:29 10° ENE visible
01 Nov -2.7 06:57:04 10° W 06:59:58 28° NNW 07:02:51 10° NE visible
02 Nov -3.5 06:06:44 39° WNW 06:07:23 46° NNW 06:10:33 10° NE visible
